Montana Department of Transportation

COVID-19

View the Governor’s Coronavirus Task Force site for more information.

Main Content

Accidents and Incidents Report

Hourly Weather Roundup

ASUS45 KTFX 200410

RWRMT 

Montana Regional Weather Roundup

National Weather Service Great Falls MT

1000 PM MDT SAT SEP 19 2020



NOTE: "FAIR" indicates few or no clouds below 12,000 feet with no

significant weather and/or obstructions to visibility.



MTZ001.007-043-200500-

West of the divide

  

CITY           SKY/WX    TMP DP  RH WIND       PRES   REMARKS

Kalispell      CLOUDY    57  45  64 S9        29.96S                  

Missoula       MOCLDY    52  52 100 W5        30.05S                  

Butte          MOCLDY    50  43  77 NW3       30.09R                  

Anaconda         N/A     48  45  87 W6        30.09R                  

Deer Lodge       N/A     50  46  87 W3        30.11R                  

Hamilton       CLOUDY    52  50  93 CALM      30.08R                  

Libby            N/A     57  48  72 CALM      29.96S                  

Mullan Pass    CLOUDY    44  42  93 VRB3      30.10R FOG              

Plains           N/A     57  48  72 CALM      30.03R                  

Ronan            N/A     54  48  82 CALM      30.02R                  

Thompson Falls   N/A     54  52  93 CALM      30.07R                  

--------------------------------



MTZ008-052.055-200500-

Southwest Montana

  

CITY           SKY/WX    TMP DP  RH WIND       PRES   REMARKS

Bozeman        CLOUDY    53  44  71 NW8       30.05R                  

Dillon         MOCLDY    48  41  76 SW14      30.08R                  

Ennis          MOCLDY    48  41  76 SE10      30.12S                  

Twin Bridges   CLOUDY    52  45  76 S6        30.09R                  

W Yellowstone  CLOUDY    41  41 100 SW6       30.14R                  

--------------------------------



MTZ009-010-012-014-046-048-049-054-200500-

East Slopes and Central Montana

  

CITY           SKY/WX    TMP DP  RH WIND       PRES   REMARKS

Cut Bank       LGT RAIN  54  46  74 W21       29.83R                  

Great Falls    MOCLDY    55  42  61 SW15      29.89R                  

Helena         CLOUDY    57  42  57 W14G21    30.00R                  

Malmstrom AFB  LGT RAIN  57  45  62 SW23G29   29.90R                  

Augusta        MOCLDY    56  40  56 W21       29.91R                  

Bowmans Corner MOCLDY    51  42  70 SW18      29.91F                  

Choteau          N/A     57  43  58 SW13      29.87S                  

Ulm            MOCLDY    56  43  62 W16G23    29.90R                  

White Sulphur    N/A     52  39  62 SE8       30.00S                  

--------------------------------



MTZ011-013-016-021-045-047-050-051-200500-

North Central Montana

  

CITY           SKY/WX    TMP DP  RH WIND       PRES   REMARKS

Havre          RAIN      56  54  93 SW7       29.78F FOG              

Lewistown      CLOUDY    52  44  74 SW13      29.90S                  

Chinook          N/A     59  55  88 SW10      29.78R                  

Denton         MOCLDY    56  45  67 W16       29.83S                  

Fort Benton      N/A     61  45  55 S13G18    29.85R                  

Geyser         MOCLDY    57  42  56 W13       29.89R                  

N Bar Ranch    FAIR      52  41  66 W7        29.91R                  

Stanford       MOCLDY    55  41  59 W16       29.90R                  

--------------------------------



MTZ017.020-022.027-061-062-200500-

Northeast Montana

  

CITY           SKY/WX    TMP DP  RH WIND       PRES   REMARKS

Glasgow        CLOUDY    67  54  63 W12       29.74R                  

Circle           N/A     70  55  60 NW18      29.72                   

Culbertson       N/A     66  54  63 E14       29.71R                  

Glendive       MOCLDY    67  56  67 NW5       29.72F                  

Jordan           N/A     61  52  72 W14       29.82R                  

Malta          MOCLDY    61  54  77 W8G17     29.78R                  

Plentywood     MOCLDY    64  52  63 S13G20    29.77R                  

Poplar           N/A     66  54  63 E8        29.71F                  

Scobey           N/A     64  48  56 CALM      29.75RSidney         CLOUDY    66  54  65 S8        29.74R                  

Wolf Point     CLOUDY    66  53  63 E9        29.71F                  

--------------------------------



MTZ028.42-056.058-200500-

Southcentral and southeast Montana

  

CITY           SKY/WX    TMP DP  RH WIND       PRES   REMARKS

Baker          MOCLDY    66  52  60 VRB7      29.78F                  

Big Timber     PTCLDY    54  39  58 W23       29.97R                  

Billings       PTCLDY    59  38  45 W17       29.90R                  

Hardin         MOCLDY    55  45  67 S7        29.88                   

Laurel           N/A     61  37  41 W17G24    29.91R                  

Livingston     CLOUDY    56  40  55 SW21G29   29.99R                  

Miles City     MOCLDY    67  48  50 NW20G30   29.79S                  

--------------------------------



Regional Reports...Dakotas/MN

  

CITY           SKY/WX    TMP DP  RH WIND       PRES   REMARKS

Williston      MOCLDY    64  51  62 SE16G32   29.74F                  

Minot          PTCLDY    59  52  77 E9        29.82F                  

Dickinson      PTCLDY    59  53  80 SE10      29.74F                  

Beach          MOCLDY    63  54  72 SE13      29.78R                  

Crosby         FAIR      63  52  67 SE13G18   29.77F                  

Hettinger      PTCLDY    63  54  72 E14       29.76F                  

Tioga            N/A     61  54  77 SE15G24   29.79F                  

Watford City   FAIR      64  54  68 SE13G18   29.74F                  

Bismarck       PTCLDY    60  54  80 NE8       29.81F                  

Grand Forks    PTCLDY    64  51  62 SE14      29.95S                  

Fargo          CLEAR     64  51  62 SE15G25   29.96S                  

Buffalo SD       N/A     65  51  60 SE5       29.75R                  

Rapid City     CLOUDY    70  50  49 SW8       29.83R                  

Intl Falls     CLEAR     58  50  75 VRB3      30.09S                  

Duluth         PTCLDY    59  48  67 S12       30.18R                  

Minneapolis    PTCLDY    59  49  69 SE9       30.17R                  

--------------------------------



Regional Reports...WY/ID/WA

  

CITY           SKY/WX    TMP DP  RH WIND       PRES   REMARKS

Buffalo WY     PTCLDY    57  40  52 NW5       29.98R                  

Cody           MOCLDY    57  35  43 W16G24    30.02R                  

Gillette       MOCLDY    67  31  26 W17       29.92R                  

Powell         FAIR      52  34  50 N6        29.97S                  

Sheridan       PTCLDY    58  42  55 NW10      29.92R                  

Yellowstone La   N/A     35  34  96 CALM      30.21S                  

Boise          CLEAR     61  40  45 CALM      30.06R                  

Couer d'Alene  MOCLDY    58  53  84 SE8       30.01R                  

Idaho Falls    PTCLDY    47  45  93 N5        30.10S                  

Salmon         CLOUDY    54  45  71 CALM      30.11R                  

Spokane        MOCLDY    63  48  58 S14       29.98S                  

Seattle        CLOUDY    60  59  96 CALM      30.10R                  

--------------------------------



Regional Reports...Alberta

  

CITY           SKY/WX    TMP DP  RH WIND       PRES   REMARKS

Calgary        CLOUDY    61  46  59 SW5       29.78R SMOKE            

Cardston         N/A     59  43  55 W14G23      N/A                   

Crowsnest Pass   N/A     54  48  82 W5          N/A                   

Del Bonita       N/A     52  50  93 W10         N/A                   

Edmonton       CLEAR     57  54  88 W6        29.70R                  

Fort McMurray  CLOUDY    59  55  88 CALM      29.60R                  

High Level     MOCLDY    55  54  94 N2        29.61S                  

Lethbridge     LGT RAIN  59  52  77 W9        29.79R                  

Lloydminster   MOCLDY    59  52  77 S7        29.67R                  

Milk River       N/A     57  48  72 W17G25      N/A                   

Peace River    LGT RAIN  55  54  94 W7        29.70R                  

Pincher Creek    N/A57  45  62 W22G31    29.84R                  

Raymond          N/A     59  50  72 SW9         N/A                   

Waterton Gate    N/A     57  43  58 SW17G28     N/A                   

Fort Smith NWT PTCLDY    57  52  82 SE7       29.58S                  

--------------------------------



Regional Reports...Saskatchewan

  

CITY           SKY/WX    TMP DP  RH WIND       PRES   REMARKS

Assiniboia       N/A     64  50  59 SE9         N/A                   

Coronach         N/A     63  52  67 SE7         N/A                   

Cypress Hills    N/A     57  43  58 W6          N/A                   

Estevan        MOCLDY    63  52  67 SE12G22   29.78F                  

La Ronge         N/A     64  46  52 S7          N/A                   

Moose Jaw        N/A     63  50  63 SE9         N/A                   

Prince Albert  PTCLDY    52  46  82 NE3       29.75S                  

Regina         CLOUDY    64  50  59 SE17G24   29.75F                  

Rockglen         N/A     63  50  63 SE9         N/A                   

Saskatoon      MOCLDY    64  46  52 SE10      29.70S                  

Swift Current  CLEAR     66  50  55 SE8       29.68F                  

Uranium City     N/A     52  48  87 MISG        N/A                   

Val Marie        N/A     63  46  55 W12         N/A                   

--------------------------------